Current Weather Conditions: station 62114

sailwx.info

See reports from other nearby stations

no recent reports received from weather station ID 62114

Tides Pressure Air temp Water temp Dewpoint Dewpoint depression Visibility Wind speed Wind direction Waves Ship positions
date/time (UTC)wind fromknots sea level pressurealtimeterstation pressurevisibilityair tempwater tempwave heightnotes
2016-Aug-26 22:00 250 14 14.8
2016-Aug-26 21:00 240 16 14.9
2016-Aug-26 20:00 240 13 15.1
2016-Aug-26 19:00 240 14 15.2
2016-Aug-26 18:00 230 15 14.6
2016-Aug-26 17:00 250 10 14.6
2016-Aug-26 16:00 250 14 14.6
2016-Aug-26 15:00 240 15 14.6
2016-Aug-26 14:00 250 15 14.1
2016-Aug-26 13:00 240 14 13.6
2016-Aug-26 12:00 230 15 13.5
2016-Aug-26 11:00 220 13 13.8
2016-Aug-26 10:00 210 10 13.7
2016-Aug-26 09:00 210 8 13.2
2016-Aug-26 08:00 210 4 13.1
2016-Aug-26 07:00 180 3 15.0
2016-Aug-26 06:00 190 2 14.9
2016-Aug-26 05:00 17.8
2016-Aug-26 04:00 120 1 14.6
2016-Aug-26 03:00 130 3 15.3
2016-Aug-26 02:00 120 6 14.3
2016-Aug-26 01:00 140 7 14.0
2016-Aug-26 00:00 090 8 19.0
2016-Aug-25 23:00 080 9 16.9
2016-Aug-25 22:00 080 8 17.7
2016-Aug-25 21:00 080 7 16.8
2016-Aug-25 20:00 090 8 19.2
2016-Aug-25 19:00 090 6 20.7
2016-Aug-25 18:00 060 8 21.6
2016-Aug-25 17:00 060 7 22.5
2016-Aug-25 16:00 060 6 21.8
2016-Aug-25 15:00 090 7 21.1
2016-Aug-25 14:00 070 5 22.0
2016-Aug-25 13:00 070 6 21.4
2016-Aug-25 12:00 050 8 21.6
2016-Aug-25 11:00 050 7 21.5
2016-Aug-25 10:00 050 6 21.2
2016-Aug-25 09:00 040 7 19.1
2016-Aug-25 08:00 030 6 18.6
2016-Aug-25 07:00 040 7 15.8
2016-Aug-25 06:00 030 9 16.8
2016-Aug-25 05:00 030 8 16.2
2016-Aug-25 04:00 030 8 15.0
2016-Aug-25 03:00 020 6 17.2
2016-Aug-25 02:00 360 5 16.8
2016-Aug-25 01:00 350 5 14.3
2016-Aug-25 00:00 360 5 16.9
2016-Aug-24 23:00 010 6 17.6